When you browse on this site, cookies collect data to enhance your experience and personalize the content and advertising you see.
Visit our Privacy Policy to learn more. By continuing to use the site, you agree to this use of cookies and data.
  • In Czech Republic
  • List of Countries
  • For 7 days
  • Water Temperature
  • Satellite Maps
  • Weather Map
  • Weather Widgets
  • user-avatar
    Login

    Hourly Weather Mansa Konko

    Today, 17 July, Wednesday

    Time Temperature Precipitation Wind Pressure Humidity
    00:00 +28°C° 0.4 mm 2 mps 759 mmHg 72%
    01:00 +27°C° 0.4 mm 2 mps 759 mmHg 74%
    02:00 +27°C° 0.4 mm 1 mps 759 mmHg 76%
    03:00 +27°C° 0.2 mm 1 mps 759 mmHg 78%
    04:00 +26°C° 0.2 mm 1 mps 759 mmHg 79%
    05:00 +26°C° 0.2 mm 1 mps 759 mmHg 80%
    06:00 +27°C° 0 mm 1 mps 759 mmHg 76%
    07:00 +28°C° 0 mm 1 mps 760 mmHg 72%
    08:00 +29°C° 0 mm 1 mps 760 mmHg 68%
    09:00 +30°C° 0 mm 2 mps 760 mmHg 62%
    10:00 +33°C° 0 mm 3 mps 760 mmHg 57%
    11:00 +34°C° 0 mm 3 mps 760 mmHg 51%
    12:00 +35°C° 0 mm 3 mps 760 mmHg 49%
    13:00 +35°C° 0 mm 3 mps 759 mmHg 48%
    14:00 +36°C° 0 mm 3 mps 758 mmHg 47%
    15:00 +35°C° 0.1 mm 3 mps 758 mmHg 49%
    16:00 +35°C° 0.1 mm 3 mps 758 mmHg 51%
    17:00 +34°C° 0.1 mm 4 mps 758 mmHg 53%
    18:00 +33°C° 0.2 mm 4 mps 759 mmHg 57%
    19:00 +32°C° 0.2 mm 4 mps 760 mmHg 62%
    20:00 +30°C° 0.2 mm 5 mps 760 mmHg 67%
    21:00 +29°C° 0.1 mm 4 mps 760 mmHg 68%
    22:00 +29°C° 0.1 mm 4 mps 761 mmHg 70%
    23:00 +28°C° 0.1 mm 3 mps 761 mmHg 72%

    Tomorrow, 18 July, Thursday

    Time Temperature Precipitation Wind Pressure Humidity
    00:00 +28°C° 0.9 mm 4 mps 760 mmHg 75%
    01:00 +27°C° 0.9 mm 4 mps 760 mmHg 79%
    02:00 +26°C° 0.9 mm 4 mps 759 mmHg 83%
    03:00 +26°C° 0 mm 3 mps 760 mmHg 83%
    04:00 +26°C° 0 mm 2 mps 760 mmHg 83%
    05:00 +26°C° 0 mm 1 mps 760 mmHg 82%
    06:00 +27°C° 0 mm 2 mps 760 mmHg 80%
    07:00 +28°C° 0 mm 2 mps 760 mmHg 77%
    08:00 +28°C° 0 mm 2 mps 761 mmHg 74%
    09:00 +29°C° 0 mm 2 mps 761 mmHg 71%
    10:00 +29°C° 0 mm 3 mps 761 mmHg 69%
    11:00 +30°C° 0 mm 4 mps 761 mmHg 66%
    12:00 +31°C° 0 mm 3 mps 760 mmHg 61%
    13:00 +33°C° 0 mm 3 mps 759 mmHg 57%
    14:00 +34°C° 0 mm 3 mps 759 mmHg 53%
    15:00 +34°C° 0 mm 4 mps 758 mmHg 52%
    16:00 +34°C° 0 mm 4 mps 758 mmHg 52%
    17:00 +34°C° 0 mm 5 mps 758 mmHg 52%
    18:00 +32°C° 0.1 mm 5 mps 759 mmHg 57%
    19:00 +30°C° 0.1 mm 5 mps 759 mmHg 62%
    20:00 +29°C° 0.1 mm 5 mps 760 mmHg 66%
    21:00 +28°C° 0 mm 5 mps 760 mmHg 70%
    22:00 +28°C° 0 mm 4 mps 760 mmHg 73%
    23:00 +27°C° 0 mm 4 mps 760 mmHg 76%

    Day after tomorrow, 19 July, Friday

    Time Temperature Precipitation Wind Pressure Humidity
    00:00 +27°C° 0 mm 4 mps 760 mmHg 77%
    01:00 +27°C° 0 mm 4 mps 759 mmHg 79%
    02:00 +26°C° 0 mm 3 mps 759 mmHg 80%
    03:00 +26°C° 0 mm 3 mps 759 mmHg 81%
    04:00 +26°C° 0 mm 3 mps 759 mmHg 81%
    05:00 +26°C° 0 mm 3 mps 759 mmHg 82%
    06:00 +27°C° 0 mm 4 mps 759 mmHg 77%
    07:00 +28°C° 0 mm 4 mps 759 mmHg 73%
    08:00 +28°C° 0 mm 5 mps 760 mmHg 68%
    09:00 +30°C° 0 mm 4 mps 759 mmHg 59%
    10:00 +33°C° 0 mm 4 mps 759 mmHg 50%
    11:00 +35°C° 0 mm 4 mps 759 mmHg 42%
    12:00 +36°C° 0 mm 4 mps 758 mmHg 38%
    13:00 +37°C° 0 mm 4 mps 758 mmHg 35%
    14:00 +38°C° 0 mm 3 mps 757 mmHg 32%
    15:00 +37°C° 0 mm 4 mps 757 mmHg 36%
    16:00 +36°C° 0 mm 5 mps 756 mmHg 40%
    17:00 +35°C° 0 mm 6 mps 756 mmHg 44%
    18:00 +33°C° 0 mm 6 mps 756 mmHg 51%
    19:00 +30°C° 0 mm 5 mps 757 mmHg 58%
    20:00 +28°C° 0 mm 5 mps 757 mmHg 64%
    21:00 +28°C° 0 mm 4 mps 758 mmHg 67%
    22:00 +27°C° 0 mm 4 mps 758 mmHg 69%
    23:00 +27°C° 0 mm 3 mps 758 mmHg 72%

    20 July, Saturday

    Time Temperature Precipitation Wind Pressure Humidity
    00:00 +26°C° 0 mm 3 mps 758 mmHg 73%
    01:00 +26°C° 0 mm 3 mps 758 mmHg 75%
    02:00 +26°C° 0 mm 2 mps 757 mmHg 76%
    03:00 +25°C° 0 mm 2 mps 757 mmHg 78%
    04:00 +25°C° 0 mm 2 mps 758 mmHg 80%
    05:00 +25°C° 0 mm 1 mps 758 mmHg 81%
    06:00 +26°C° 0 mm 2 mps 758 mmHg 77%
    07:00 +27°C° 0 mm 2 mps 759 mmHg 73%
    08:00 +27°C° 0 mm 2 mps 759 mmHg 69%
    09:00 +29°C° 0 mm 2 mps 759 mmHg 62%
    10:00 +31°C° 0 mm 2 mps 759 mmHg 54%
    11:00 +34°C° 0 mm 2 mps 759 mmHg 47%
    12:00 +36°C° 0 mm 2 mps 758 mmHg 43%
    13:00 +37°C° 0 mm 2 mps 757 mmHg 39%
    14:00 +39°C° 0 mm 2 mps 757 mmHg 34%
    15:00 +39°C° 0 mm 2 mps 757 mmHg 34%
    16:00 +38°C° 0 mm 2 mps 756 mmHg 34%
    17:00 +38°C° 0 mm 3 mps 756 mmHg 34%
    18:00 +36°C° 0 mm 3 mps 757 mmHg 43%
    19:00 +33°C° 0 mm 4 mps 757 mmHg 53%
    20:00 +30°C° 0 mm 4 mps 758 mmHg 62%
    21:00 +29°C° 0 mm 4 mps 758 mmHg 64%
    22:00 +29°C° 0 mm 4 mps 759 mmHg 66%
    23:00 +28°C° 0 mm 3 mps 759 mmHg 69%

    21 July, Sunday

    Time Temperature Precipitation Wind Pressure Humidity
    00:00 +28°C° 0 mm 3 mps 759 mmHg 70%
    01:00 +27°C° 0 mm 2 mps 758 mmHg 71%
    02:00 +27°C° 0 mm 1 mps 758 mmHg 73%
    03:00 +27°C° 0 mm 1 mps 758 mmHg 74%
    04:00 +26°C° 0 mm 1 mps 758 mmHg 75%
    05:00 +26°C° 0 mm 1 mps 759 mmHg 77%
    06:00 +27°C° 0 mm 1 mps 759 mmHg 72%
    07:00 +28°C° 0 mm 2 mps 759 mmHg 68%
    08:00 +29°C° 0 mm 2 mps 760 mmHg 64%
    09:00 +31°C° 0 mm 2 mps 760 mmHg 56%
    10:00 +34°C° 0 mm 2 mps 760 mmHg 49%
    11:00 +36°C° 0 mm 3 mps 760 mmHg 42%
    12:00 +37°C° 0 mm 2 mps 759 mmHg 39%
    13:00 +38°C° 0 mm 2 mps 758 mmHg 36%
    14:00 +39°C° 0 mm 2 mps 757 mmHg 33%
    15:00 +39°C° 0 mm 2 mps 757 mmHg 33%
    16:00 +39°C° 0 mm 2 mps 757 mmHg 33%
    17:00 +39°C° 0 mm 2 mps 757 mmHg 33%
    18:00 +36°C° 0.1 mm 3 mps 757 mmHg 42%
    19:00 +34°C° 0.1 mm 4 mps 758 mmHg 51%
    20:00 +30°C° 0.1 mm 4 mps 759 mmHg 60%
    21:00 +29°C° 0.1 mm 4 mps 759 mmHg 63%
    22:00 +29°C° 0.1 mm 3 mps 760 mmHg 67%
    23:00 +28°C° 0.1 mm 3 mps 760 mmHg 70%

    22 July, Monday

    Time Temperature Precipitation Wind Pressure Humidity
    00:00 +28°C° 0.1 mm 3 mps 759 mmHg 72%
    01:00 +27°C° 0.1 mm 3 mps 759 mmHg 75%
    02:00 +27°C° 0.1 mm 3 mps 758 mmHg 77%
    03:00 +27°C° 0 mm 3 mps 759 mmHg 78%
    04:00 +27°C° 0 mm 3 mps 759 mmHg 78%
    05:00 +27°C° 0 mm 3 mps 759 mmHg 79%
    06:00 +28°C° 0 mm 3 mps 759 mmHg 75%
    07:00 +28°C° 0 mm 3 mps 759 mmHg 72%
    08:00 +29°C° 0 mm 3 mps 760 mmHg 68%
    09:00 +31°C° 0 mm 3 mps 759 mmHg 60%
    10:00 +34°C° 0 mm 4 mps 759 mmHg 51%
    11:00 +36°C° 0 mm 4 mps 759 mmHg 42%
    12:00 +38°C° 0 mm 4 mps 758 mmHg 39%
    13:00 +40°C° 0 mm 4 mps 757 mmHg 36%
    14:00 +41°C° 0 mm 4 mps 757 mmHg 33%
    15:00 +40°C° 0 mm 5 mps 756 mmHg 34%
    16:00 +39°C° 0 mm 6 mps 756 mmHg 36%
    17:00 +38°C° 0 mm 6 mps 756 mmHg 38%
    18:00 +35°C° 0 mm 6 mps 756 mmHg 44%
    19:00 +33°C° 0 mm 6 mps 757 mmHg 50%
    20:00 +30°C° 0 mm 6 mps 758 mmHg 56%
    21:00 +29°C° 0 mm 5 mps 758 mmHg 60%
    22:00 +28°C° 0 mm 5 mps 758 mmHg 64%
    23:00 +28°C° 0 mm 4 mps 758 mmHg 69%
    Show more